Regional Weather Roundup
Issued by NWS

Home | Current Version | Previous Version | Text Only | Print | Product List | Glossary On
Versions: 1 2 3 4 5 6 7 8 9 10 11 12 13 14 15 16 17 18 19 20 21 22 23 24 25 26 27 28 29 30 31 32 33 34 35 36 37 38 39 40 41 42 43 44 45 46 47 48 49 50
000
ASUS43 KMPX 091710
RWRMN
WEATHER ROUNDUP FOR MINNESOTA
NATIONAL WEATHER SERVICE TWIN CITIES/CHANHASSEN MN
1100 AM CST FRI DEC 09 2016


NOTE: "FAIR" INDICATES FEW OR NO CLOUDS BELOW 12,000 FEET WITH NO
SIGNIFICANT WEATHER AND/OR OBSTRUCTIONS TO VISIBILITY. N/A MEANS
CURRENT SKY AND/OR WEATHER CONDITIONS ARE NOT AVAILABLE.

MNZ060>063-068>070-091800-
   Twin Cities Metro

CITY           SKY/WX    TMP DP  RH WIND       PRES   REMARKS
TWIN CITIES    PTSUNNY   15   8  73 VRB6      30.56S WCI   6
ST PAUL        CLOUDY    17  11  77 S5        30.57F WCI  10
CRYSTAL        CLOUDY    15   6  67 W8        30.55S WCI   4
BLAINE         FLURRIES  18  10  73 W8        30.54S WCI   7
LAKEVILLE      LGT SNOW  10   7  85 W6        30.55F WCI   1
EDEN PRAIRIE   MOSUNNY   15   7  70 W9        30.55F WCI   3
SOUTH ST PAUL  MOSUNNY   16   9  74 SW7       30.56F WCI   6
LAKE ELMO      FLURRIES  19  14  79 SW7       30.55F WCI  10
$$
MNZ001>005-007-008-013>017-022>024-027-028-091800-
   Northwest Minnesota

CITY           SKY/WX    TMP DP  RH WIND       PRES   REMARKS
BEMIDJI        LGT SNOW   6   1  79 W3        30.50R
HALLOCK        MOSUNNY    1  -4  78 N5        30.58S WCI  -8
ROSEAU         CLOUDY     3  -2  78 NW9       30.53S HAZE    WCI -11
WARROAD        CLOUDY     3  -4  72 W9        30.52S WCI -11
THIEF RVR FALL FLURRIES   7   2  80 NW6       30.55R WCI  -3
CROOKSTON      CLOUDY     7   3  85 NW10      30.59R WCI  -8
FOSSTON        LGT SNOW   7   0  72 NW6       30.52S WCI  -3
DETROIT LAKES  LGT SNOW   9   3  78 W8        30.53R WCI  -4
MOORHEAD       CLOUDY     5   0  78 NW8       30.60R HAZE    WCI  -8
PARK RAPIDS    CLOUDY     8   1  73 W6        30.49S WCI  -2
$$
MNZ006-009>011-018-025>026-091800-
   North Central Minnesota

CITY           SKY/WX    TMP DP  RH WIND       PRES   REMARKS
BAUDETTE       CLOUDY     3  -6  66 W14       30.49F WCI -15
FLAG ISLAND    CLOUDY     3  -2  78 W13       30.49F WCI -14
INTL FALLS     LGT SNOW   5  -1  76 NW7       30.47F WCI  -7
WASKISH        CLOUDY     7   1  78 NW3       30.50S
BIG FORK       CLOUDY     9   0  66 NW6       30.48F WCI  -1
LONGVILLE      LGT SNOW   9   1  72 W5        30.49F WCI   0
GRAND RAPIDS   FLURRIES   8   0  69 NW8       30.50F WCI  -4
CRANE LAKE     CLOUDY     5   0  78 W7        30.48F WCI  -7
ORR            CLOUDY     3  -6  66 NW8       30.44S WCI -10
COOK           LGT SNOW   5   0  78 W8        30.46F WCI  -8
$$
MNZ012-019>021-037-091800-
   Northeast Minnesota

CITY           SKY/WX    TMP DP  RH WIND       PRES   REMARKS
DULUTH         PTSUNNY   10   1  67 NW10      30.45F WCI  -4
ELY            CLOUDY     7   1  78 W10       30.42F WCI  -8
HIBBING        LGT SNOW   4  -2  76 NW12      30.47F WCI -12
EVELETH        MOSUNNY    6  -2  68 NW10G17   30.47F WCI  -8
DULUTH HARBOR  CLOUDY    16   3  57 W13       30.53F WCI   2
TWO HARBORS    MOSUNNY   16   3  57 W8        30.45S WCI   5
SILVER BAY     MOSUNNY   16   1  53 NW6       30.42F WCI   7
GRAND MARAIS     N/A     19   9  65 VRB5      30.46F WCI  12
G MARAIS ARPRT LGT SNOW  10   1  67 W7        30.35F WCI   0
$$
MNZ029>031-032-039>041-046>048-054>057-064-091800-
   West Central Minnesota

CITY           SKY/WX    TMP DP  RH WIND       PRES   REMARKS
FERGUS FALLS   CLOUDY     3   0  85 W7        30.62S HAZE    WCI  -9
WHEATON        SUNNY      5   0  78 W6        30.61F WCI  -6
MORRIS         CLOUDY     3  -2  78 NW7       30.57F WCI  -9
ALEXANDRIA       N/A      6   2  83 MISG      30.54
ELBOW LAKE     CLOUDY     3  -1  83 NW9       30.57F FOG     WCI -12
WADENA         FLURRIES   9   1  72 W5        30.51S WCI   0
GLENWOOD       CLOUDY     7   3  85 W8        30.55S WCI  -6
APPLETON       MOSUNNY    7  -2  66 NW7       30.60F WCI  -5
BENSON         FLURRIES   9   1  72 NW6       30.58F WCI  -1
ORTONVILLE     MOSUNNY    5  -2  72 CALM      30.58F
MADISON        SUNNY      9   0  66 NW7       30.60F WCI  -3
WILLMAR        LGT SNOW   9   5  85 NW5       30.58F WCI   0
$$
MNZ033>034-036-042>043-049>051-058-059-091800-
   Central Minnesota

CITY           SKY/WX    TMP DP  RH WIND       PRES   REMARKS
ST CLOUD       CLOUDY    12   7  80 W5        30.54F WCI   4
PAYNESVILLE    LGT SNOW  10   4  78 W6        30.56S WCI   0
AITKIN         CLOUDY    14   1  57 NW6       30.49S WCI   5
PINE RIVER     CLOUDY     9   1  72 NW3       30.53S
BRAINERD       CLOUDY    11   3  70 NW8       30.51S WCI  -1
STAPLES        CLOUDY     9   1  72 NW5       30.52S WCI   0
LONG PRAIRIE   CLOUDY    10   3  72 W6        30.53S WCI   1
LITTLE FALLS   CLOUDY    12   3  67 W6        30.53S WCI   3
LITCHFIELD     CLOUDY    12   7  79 W8        30.56S WCI   1
BUFFALO        FLURRIES  13   8  78 W6        30.56F WCI   4
MAPLE LAKE     MOSUNNY   15  10  80 W7        30.56S WCI   5
HUTCHINSON     LGT SNOW  14   9  81 W10       30.57F WCI   1
$$
MNZ037-044-045-052-053-091800-
   East Central Minnesota

CITY           SKY/WX    TMP DP  RH WIND       PRES   REMARKS
PRINCETON      LGT SNOW  16   9  73 W6        30.53F WCI   7
MORA           PTSUNNY   16   9  73 W5        30.53F WCI   9
CAMBRIDGE      FLURRIES  18   9  68 NW3       30.52S
RUSH CITY      CLOUDY    16  10  79 W5        30.53F WCI   9
MOOSE LAKE     CLOUDY    14   5  67 N6        30.49F WCI   5
HINCKLEY       LGT SNOW  16  10  79 N3        30.51F
CLOQUET        CLOUDY    10   0  61 W12       30.47F WCI  -4
MCGREGOR       CLOUDY    12   5  73 N8        30.50S WCI   1
$$
MNZ071>073-080-081-089-090-097-098-091800-
   Southwest Minnesota

CITY           SKY/WX    TMP DP  RH WIND       PRES   REMARKS
MONTEVIDEO     CLOUDY     7   3  85 NW5       30.61F WCI  -2
GRANITE FALLS  CLOUDY     8   3  82 W6        30.62S WCI  -3
CANBY          SUNNY      8   0  69 CALM      30.60F
MARSHALL       SUNNY      6   0  76 NW7       30.59F WCI  -6
REDWOOD FALLS  CLOUDY     8   3  80 NW7       30.59F HAZE    WCI  -3
OLIVIA         LGT SNOW  10   5  79 W7        30.58F WCI   0
PIPESTONE      PTSUNNY    7   1  78 N7        30.53S WCI  -5
WINDOM         SUNNY      9   3  78 CALM      30.56S
WORTHINGTON    SUNNY      8   4  83 W6        30.55S WCI  -2
JACKSON        FLURRIES   9   5  85 W6        30.56S WCI  -1
TRACY          MOSUNNY    8   3  80 W3        30.58S
SLAYTON        SUNNY      6   1  80 W3        30.55S
$$
MNZ065>067-074>077-082>085-091>093-091800-
   South Central Minnesota

CITY           SKY/WX    TMP DP  RH WIND       PRES   REMARKS
MANKATO        SUNNY     10   5  80 W10       30.58F WCI  -4
NEW ULM        SUNNY      9   3  78 W8        30.59F WCI  -4
ST JAMES       SUNNY     10   5  79 W3        30.59F
FAIRMONT       CLOUDY    10   5  80 NW5       30.58F WCI   2
GLENCOE        MOSUNNY   13   9  85 W8        30.57S WCI   2
FARIBAULT      SUNNY     10   7  85 W6        30.55F WCI   1
OWATONNA       LGT SNOW  12   7  79 SW8       30.55S WCI   1
WASECA         LGT SNOW  12   9  85 W9        30.58S WCI   0
ALBERT LEA     MOSUNNY   16  10  79 W6        30.55S WCI   7
$$
MNZ078>079-086>088-094>096-091800-
   Southeast Minnesota

CITY           SKY/WX    TMP DP  RH WIND       PRES   REMARKS
ROCHESTER      SUNNY     12   8  84 W7        30.53F WCI   1
RED WING       LGT SNOW  16   9  73 W5        30.56F WCI   9
STANTON        SUNNY     13   7  76 SW5       30.55F WCI   5
DODGE CENTER   FLURRIES  12   9  85 SW6       30.52F WCI   3
WINONA           N/A     19  12  73 NW3       30.57F
AUSTIN         SUNNY     12   9  85 W3        30.54F
PRESTON        SUNNY     12   6  79 W6        30.54F WCI   2
$$
ABBREVIATIONS USED IN REMARKS
   TC - TEMPERATURES IN CELSIUS
  WCI - WIND CHILL INDEX
   HX - HEAT INDEX
  VSB - VISIBILITY
$$




USA.gov is the U.S. government's official web portal to all federal, state and local government web resources and services.